Weather History for KSYR - January, 2014

Change the Weather History Date:

Monday, January 27, 2014

  Actual Average Record
Temperature  
Mean Temperature 23 °F 23 °F  
Max Temperature 38 °F 32 °F 64 °F (1916)
Min Temperature 7 °F 15 °F -16 °F (1994)
Degree Days  
Heating Degree Days 42 42  
Month to date heating degree days 1190 1121  
Since 1 July heating degree days 3665 3574  
Cooling Degree Days 0 0  
Month to date cooling degree days 0 0  
Year to date cooling degree days 0 0  
Moisture  
Dew Point 12 °F    
Average Humidity 70    
Maximum Humidity 92    
Minimum Humidity 47    
Precipitation  
Precipitation 0.03 in 0.07 in 0.96 in (2012)
Month to date precipitation 2.21 2.22  
Year to date precipitation 2.21 2.22  
Snow  
Snow 1.40 in 1.10 in 9.00 in (1963)
Month to date snowfall 25.3 29.6  
Since 1 July snowfall 68.6 72.2  
Snow Depth 7.00 in    
Sea Level Pressure  
Sea Level Pressure 29.69 in    
Wind  
Wind Speed 20 mph (WSW)    
Max Wind Speed 38 mph    
Max Gust Speed 47 mph    
Visibility 6 miles    
Events Fog , Snow    
T = Trace of Precipitation, MM = Missing Value Source: NWS Daily Summary

Daily Weather History Graph

Daily Weather History Graph

Search for Another Location

Airport or City:

Trip Planner

Search our weather history database for the weather conditions in past years. The results will help you decide how hot, cold, wet, or windy it might be!

Date:

Astronomy

Jan. 27, 2014 Rise Set
Actual Time 7:24 AM EST 5:10 PM EST
Civil Twilight 6:54 AM EST 5:40 PM EST
Nautical Twilight 6:19 AM EST 6:15 PM EST
Astronomical Twilight 5:46 AM EST 6:48 PM EST
Moon 4:04 AM EST (1/27) 1:52 PM EST (1/27)
Length of Visible Light 10h 46m
Length of Day
9h 45m
Waning Crescent, 15% of the Moon is Illuminated
Jan 27
Waning Crescent
Jan 30
New
Feb 6
First Quarter
Feb 14
Full
Feb 22
Last Quarter

Hourly Weather History & Observations

Time (EST) Temp. Windchill Dew Point Humidity Pressure Visibility Wind Dir Wind Speed Gust Speed Precip Events Conditions
12:54 AM 28.9 °F 16.9 °F 18.0 °F 64% 29.49 in 9.0 mi SSW 17.3 mph - 0.00 in Snow Light Snow
1:54 AM 27.0 °F 16.7 °F 16.0 °F 63% 29.47 in 10.0 mi South 11.5 mph - 0.00 in   Overcast
2:54 AM 28.0 °F 18.1 °F 16.0 °F 61% 29.43 in 10.0 mi South 11.5 mph - N/A   Scattered Clouds
3:54 AM 30.9 °F 21.2 °F 18.0 °F 59% 29.38 in 10.0 mi South 12.7 mph - N/A   Mostly Cloudy
4:54 AM 35.1 °F 23.0 °F 21.9 °F 59% 29.31 in 7.0 mi SSW 24.2 mph 36.8 mph N/A Snow Blowing Snow
5:54 AM 36.0 °F 25.3 °F 21.9 °F 57% 29.30 in 10.0 mi SSW 19.6 mph - N/A   Mostly Cloudy
6:27 AM 35.6 °F 24.8 °F 28.4 °F 75% 29.38 in 1.5 mi SSW 19.6 mph - 0.00 in Snow Light Snow
6:30 AM 33.8 °F 18.6 °F 28.4 °F 81% 29.39 in 0.8 mi West 38.0 mph - 0.00 in Snow Light Snow
6:35 AM 30.2 °F 13.7 °F 28.4 °F 93% 29.39 in 0.5 mi West 38.0 mph - 0.00 in Snow Snow
6:54 AM 30.0 °F 15.4 °F 28.0 °F 92% 29.42 in 1.2 mi WSW 27.6 mph - 0.00 in Snow Light Snow
7:28 AM 28.4 °F 14.4 °F 26.6 °F 93% 29.48 in 0.2 mi WNW 23.0 mph - 0.00 in Fog , Snow Heavy Snow
7:38 AM 28.4 °F 14.4 °F 26.6 °F 93% 29.50 in 0.5 mi WNW 23.0 mph - 0.01 in Fog , Snow Snow
7:50 AM 26.6 °F 12.7 °F 24.8 °F 93% 29.51 in 0.2 mi WNW 20.7 mph - 0.01 in Fog , Snow Heavy Snow
7:54 AM 27.0 °F 12.5 °F 25.0 °F 92% 29.53 in 0.2 mi West 23.0 mph 28.8 mph 0.02 in Fog , Snow Heavy Snow
8:04 AM 26.6 °F 12.7 °F 24.8 °F 93% 29.54 in 0.2 mi WNW 20.7 mph 27.6 mph 0.00 in Fog , Snow Heavy Snow
8:21 AM 24.8 °F 10.0 °F 21.2 °F 86% 29.58 in 0.5 mi WNW 21.9 mph 33.4 mph 0.00 in Snow Snow
8:41 AM 23.0 °F 8.7 °F 19.4 °F 86% 29.61 in 0.8 mi WNW 18.4 mph 27.6 mph 0.00 in Snow Light Snow
8:54 AM 21.0 °F 3.3 °F 16.0 °F 81% 29.65 in 0.2 mi WNW 27.6 mph 38.0 mph 0.00 in Snow Heavy Snow
9:05 AM 19.4 °F 2.1 °F 15.8 °F 86% 29.66 in 0.2 mi West 24.2 mph 36.8 mph 0.00 in Snow Snow
9:09 AM 19.4 °F 2.1 °F 15.8 °F 86% 29.66 in 1.0 mi West 24.2 mph 36.8 mph 0.00 in Snow Light Snow
9:18 AM 19.4 °F 1.8 °F 12.2 °F 74% 29.67 in 2.0 mi West 25.3 mph 39.1 mph 0.00 in Snow Light Snow
9:28 AM 19.4 °F 1.8 °F 10.4 °F 68% 29.69 in 3.0 mi West 25.3 mph 38.0 mph 0.00 in Snow Light Snow
9:54 AM 19.9 °F 3.2 °F 9.0 °F 62% 29.73 in 6.0 mi West 23.0 mph 29.9 mph 0.00 in Snow Light Snow
10:28 AM 19.4 °F 0.2 °F 10.4 °F 68% 29.75 in 6.0 mi WSW 31.1 mph 41.4 mph 0.00 in Snow Light Snow
10:54 AM 20.8 °F 3.1 °F 5.0 °F 50% 29.76 in 7.0 mi West 27.6 mph 46.0 mph N/A   Mostly Cloudy
11:54 AM 19.0 °F 0.6 °F 2.3 °F 48% 29.81 in 7.0 mi West 27.6 mph - N/A   Scattered Clouds
12:54 PM 19.8 °F 2.9 °F 3.4 °F 49% 29.82 in 10.0 mi West 23.0 mph - N/A   Scattered Clouds
1:54 PM 19.2 °F 3.4 °F 2.3 °F 48% 29.84 in 10.0 mi West 19.6 mph - N/A   Mostly Cloudy
2:54 PM 20.7 °F 5.3 °F 4.3 °F 49% 29.86 in 10.0 mi West 19.6 mph - N/A   Mostly Cloudy
3:54 PM 17.1 °F -1.4 °F 1.9 °F 52% 29.91 in 9.0 mi West 25.3 mph 32.2 mph N/A   Scattered Clouds
4:54 PM 15.1 °F -2.0 °F 1.9 °F 56% 29.93 in 10.0 mi WSW 19.6 mph - N/A   Scattered Clouds
5:54 PM 14.0 °F -2.5 °F -2.0 °F 49% 29.97 in 10.0 mi WSW 17.3 mph 24.2 mph N/A   Partly Cloudy
6:54 PM 12.0 °F -7.7 °F -0.0 °F 59% 30.00 in 10.0 mi WSW 24.2 mph 28.8 mph N/A   Partly Cloudy
7:54 PM 10.9 °F -7.5 °F -0.9 °F 59% 30.03 in 9.0 mi WSW 19.6 mph 27.6 mph N/A   Partly Cloudy
8:54 PM 9.0 °F -8.5 °F -2.0 °F 61% 30.05 in 10.0 mi WSW 16.1 mph 25.3 mph N/A   Scattered Clouds
9:54 PM 8.1 °F -9.0 °F -4.0 °F 58% 30.06 in 10.0 mi WSW 15.0 mph - N/A   Scattered Clouds
10:54 PM 8.1 °F -12.2 °F -4.0 °F 58% 30.07 in 9.0 mi WSW 21.9 mph 31.1 mph N/A   Scattered Clouds
11:54 PM 7.0 °F -13.1 °F -6.0 °F 55% 30.09 in 10.0 mi WSW 20.7 mph 27.6 mph N/A   Scattered Clouds